STARLINK-34765

Last updated on Tue Dec 16 2025 00:02:05 GMT+0000 (Coordinated Universal Time)

1 66506U 25263X 25349.06614874 .00091440 00000+0 15196-2 0 9991 2 66506 42.9981 111.4764 0003736 300.7166 59.3326 15.51062947 5928
UTC large
Height (km)
Speed (km/s)
/
Latitude / Longitude
Inclination (degrees)
Orbital Period (minutes)
Azimuth
Elevation
Range (km)
Doppler Factor

Next 0 passes for location: London (51.5072 / 0.1276)

Sorry there are no passes over London.